Dutch Harbor, AK

3:44 PM AKDT on May 20, 2018 (GMT -0800)
Unalaska

Weather History for PADU - January, 2014

Change the Weather History Date:

Saturday, January 25, 2014

  Actual Average Record
Temperature  
Mean Temperature 33 °F -  
Max Temperature 36 °F 37 °F 93 °F (1997)
Min Temperature 30 °F 26 °F -11 °F (1997)
Degree Days  
Heating Degree Days 32    
Moisture  
Dew Point 29 °F    
Average Humidity 85    
Maximum Humidity 93    
Minimum Humidity 61    
Precipitation  
Precipitation 0.16 in - - ()
Sea Level Pressure  
Sea Level Pressure 29.32 in    
Wind  
Wind Speed 22 mph (NNW)    
Max Wind Speed 34 mph    
Max Gust Speed 53 mph    
Visibility 3 miles    
Events Fog , Rain , Snow    
Averages and records for this station are not official NWS values.
T = Trace of Precipitation, MM = Missing Value Source: NWS Daily Summary

Daily Weather History Graph

Daily Weather History Graph

Search for Another Location

Airport or City:

Astronomy

Jan. 25, 2014 Rise Set
Actual Time 10:03 AM AKST 6:34 PM AKST
Civil Twilight 9:23 AM AKST 7:14 PM AKST
Nautical Twilight 8:40 AM AKST 7:57 PM AKST
Astronomical Twilight 7:58 AM AKST 8:39 PM AKST
Moon 4:47 AM AKST (1/25) 1:44 PM AKST (1/25)
Length of Visible Light 9h 50m
Length of Day
8h 31m
Waning Crescent, 32% of the Moon is Illuminated
Jan 25
Waning Crescent
Jan 30
New
Feb 6
First Quarter
Feb 14
Full
Feb 22
Last Quarter

Hourly Weather History & Observations

Time (AKST) Temp. Windchill Dew Point Humidity Pressure Visibility Wind Dir Wind Speed Gust Speed Precip Events Conditions
12:56 AM 30.0 °F 26.5 °F 21.9 °F 72% 29.72 in 10.0 mi North 3.5 mph - N/A   Clear
1:56 AM 34.0 °F 25.0 °F 21.9 °F 61% 29.68 in 10.0 mi NNW 12.7 mph - N/A   Overcast
2:56 AM 35.1 °F 24.8 °F 24.1 °F 64% 29.64 in 10.0 mi North 17.3 mph 27.6 mph N/A   Overcast
3:56 AM 35.1 °F 23.8 °F 25.0 °F 67% 29.57 in 10.0 mi NNW 20.7 mph 28.8 mph N/A   Overcast
4:17 AM 35.6 °F 23.4 °F 24.8 °F 65% 29.53 in 10.0 mi NNW 25.3 mph 31.1 mph N/A   Overcast
4:56 AM 35.1 °F 23.0 °F 26.1 °F 70% 29.52 in 10.0 mi NNW 24.2 mph 34.5 mph N/A   Overcast
5:37 AM 33.8 °F 21.6 °F 23.0 °F 65% 29.50 in 5.0 mi North 23.0 mph 38.0 mph N/A Rain Light Rain
5:41 AM 32.0 °F 21.6 °F 24.8 °F 75% 29.50 in 3.0 mi NNE 15.0 mph 36.8 mph N/A Snow Light Snow
5:48 AM 32.0 °F 23.6 °F 26.6 °F 80% 29.51 in 1.8 mi North 10.4 mph 36.8 mph N/A Snow Light Snow
5:52 AM 30.2 °F 17.1 °F 26.6 °F 86% 29.49 in 1.0 mi NNW 21.9 mph 36.8 mph N/A Snow Light Snow
5:56 AM 30.9 °F 16.7 °F 28.0 °F 89% 29.51 in 1.0 mi NNW 27.6 mph 33.4 mph N/A Snow Light Snow
6:10 AM 30.2 °F 18.5 °F 28.4 °F 93% 29.49 in 0.5 mi North 17.3 mph 48.3 mph N/A Fog , Snow Snow
6:33 AM 30.2 °F 18.9 °F 28.4 °F 93% 29.47 in 0.5 mi North 16.1 mph 42.6 mph N/A Fog , Snow Snow
6:56 AM 30.9 °F 16.2 °F 28.0 °F 89% 29.45 in 0.5 mi NNW 29.9 mph 47.2 mph N/A Fog , Snow Snow
7:46 AM 30.2 °F 14.9 °F 28.4 °F 93% 29.42 in 0.8 mi NNW 31.1 mph 49.5 mph 0.00 in Snow Light Snow
7:56 AM 30.9 °F 16.9 °F 28.9 °F 92% 29.44 in 0.8 mi NNW 26.5 mph 52.9 mph 0.00 in Snow Light Snow
8:16 AM 32.0 °F 18.1 °F 30.2 °F 93% 29.42 in 0.5 mi NNW 27.6 mph 40.3 mph 0.01 in Fog , Snow Snow
8:56 AM 32.0 °F 18.6 °F 30.0 °F 92% 29.42 in 0.5 mi NNW 25.3 mph 41.4 mph 0.01 in Fog , Snow Snow
8:57 AM 32.0 °F 18.6 °F 30.2 °F 93% 29.40 in 0.5 mi NNW 25.3 mph 41.4 mph 0.00 in Fog , Snow Snow
9:34 AM 32.0 °F 17.6 °F 30.2 °F 93% 29.39 in 0.5 mi NNW 29.9 mph 41.4 mph 0.01 in Fog , Snow Snow
9:35 AM 32.0 °F 16.7 °F 30.2 °F 93% 29.38 in 0.5 mi NNW 34.5 mph 41.4 mph 0.01 in Fog , Snow Snow
10:02 AM 32.0 °F 18.9 °F 30.2 °F 93% 29.38 in 1.2 mi NNW 24.2 mph 44.9 mph 0.00 in Snow Light Snow
10:04 AM 32.0 °F 17.6 °F 30.2 °F 93% 29.38 in 1.0 mi NNW 29.9 mph 44.9 mph 0.00 in Snow Light Snow
10:56 AM 32.0 °F 19.2 °F 30.0 °F 92% 29.38 in 1.0 mi NNW 23.0 mph 42.6 mph 0.02 in Snow Light Snow
11:14 AM 32.0 °F 17.6 °F 30.2 °F 93% 29.35 in 0.8 mi NNW 29.9 mph 36.8 mph 0.01 in Snow Snow
11:25 AM 32.0 °F 18.1 °F 30.2 °F 93% 29.34 in 1.2 mi NNW 27.6 mph 38.0 mph 0.02 in Snow Snow
11:29 AM 33.8 °F 21.0 °F 30.2 °F 87% 29.35 in 1.5 mi NNW 25.3 mph 35.7 mph 0.03 in Snow Snow
11:41 AM 33.8 °F 20.3 °F 30.2 °F 87% 29.33 in 1.2 mi NNW 28.8 mph 35.7 mph 0.03 in Snow Snow
11:47 AM 33.8 °F 20.3 °F 30.2 °F 87% 29.33 in 1.0 mi North 28.8 mph 41.4 mph 0.04 in Snow Snow
11:52 AM 33.8 °F 19.6 °F 30.2 °F 87% 29.33 in 1.0 mi NNW 32.2 mph 41.4 mph 0.04 in Snow Snow
11:54 AM 33.8 °F 20.3 °F 30.2 °F 87% 29.32 in 1.0 mi NNW 28.8 mph 41.4 mph 0.04 in Snow Snow
11:56 AM 33.1 °F 19.8 °F 30.0 °F 89% 29.34 in 1.0 mi NNW 26.5 mph 38.0 mph 0.04 in Snow Snow
12:08 PM 33.8 °F 20.8 °F 30.2 °F 87% 29.33 in 1.2 mi NNW 26.5 mph 38.0 mph 0.00 in Snow Snow
12:33 PM 33.8 °F 20.1 °F 30.2 °F 87% 29.31 in 2.0 mi North 29.9 mph 39.1 mph 0.01 in Snow Snow
12:56 PM 33.1 °F 19.1 °F 30.9 °F 92% 29.32 in 3.0 mi NNW 29.9 mph 39.1 mph 0.02 in Snow Snow
12:59 PM 33.8 °F 22.2 °F 30.2 °F 87% 29.31 in 1.8 mi NNW 20.7 mph 39.1 mph 0.00 in Snow Snow
1:01 PM 33.8 °F 20.5 °F 30.2 °F 87% 29.30 in 3.0 mi NNW 27.6 mph 39.1 mph 0.00 in Snow Snow
1:27 PM 33.8 °F 21.3 °F 30.2 °F 87% 29.28 in 4.0 mi NNW 24.2 mph 35.7 mph 0.00 in Snow Snow
1:28 PM 33.8 °F 20.5 °F 30.2 °F 87% 29.28 in 4.0 mi NNW 27.6 mph 35.7 mph 0.00 in Snow Snow
1:42 PM 33.8 °F 21.6 °F 30.2 °F 87% 29.27 in 4.0 mi NNW 23.0 mph 33.4 mph 0.00 in Snow Light Snow
1:51 PM 33.8 °F 20.3 °F 30.2 °F 87% 29.26 in 4.0 mi NNW 28.8 mph 33.4 mph 0.00 in Snow Light Snow
1:56 PM 34.0 °F 20.3 °F 30.0 °F 85% 29.27 in 4.0 mi NNW 29.9 mph 36.8 mph 0.00 in Snow Light Snow
2:14 PM 33.8 °F 21.6 °F 28.4 °F 81% 29.26 in 4.0 mi NNW 23.0 mph 36.8 mph 0.00 in Snow Light Snow
2:22 PM 35.6 °F 24.0 °F 30.2 °F 81% 29.26 in 4.0 mi North 23.0 mph 38.0 mph 0.00 in Snow Light Snow
2:43 PM 35.6 °F 23.0 °F 30.2 °F 81% 29.23 in 6.0 mi NNW 27.6 mph - 0.00 in Snow Light Snow
2:47 PM 35.6 °F 21.9 °F 30.2 °F 81% 29.22 in 2.0 mi NNW 33.4 mph 39.1 mph 0.00 in Snow Light Snow
2:48 PM 35.6 °F 22.1 °F 30.2 °F 81% 29.23 in 1.5 mi NNW 32.2 mph 39.1 mph 0.00 in Snow Light Snow
2:56 PM 34.0 °F 20.8 °F 30.0 °F 85% 29.24 in 1.5 mi NNW 27.6 mph 34.5 mph 0.00 in Snow Light Snow
3:08 PM 33.8 °F 21.3 °F 30.2 °F 87% 29.21 in 3.0 mi NNW 24.2 mph 31.1 mph 0.00 in Snow Light Snow
3:12 PM 33.8 °F 19.9 °F 30.2 °F 87% 29.21 in 1.5 mi NNW 31.1 mph 35.7 mph 0.00 in Snow Light Snow
3:49 PM 33.8 °F 20.5 °F 30.2 °F 87% 29.20 in 4.0 mi NNW 27.6 mph 33.4 mph N/A Snow Light Snow
3:56 PM 34.0 °F 21.5 °F 30.0 °F 85% 29.21 in 2.5 mi NNW 24.2 mph 32.2 mph N/A Snow Light Snow
4:01 PM 33.8 °F 22.2 °F 30.2 °F 87% 29.19 in 3.0 mi NNW 20.7 mph 33.4 mph N/A Snow Light Snow
4:17 PM 33.8 °F 20.5 °F 30.2 °F 87% 29.18 in 3.0 mi NNW 27.6 mph 36.8 mph N/A Snow Light Snow
4:56 PM 34.0 °F 21.0 °F 30.0 °F 85% 29.20 in 2.0 mi NNW 26.5 mph 31.1 mph N/A Snow Light Snow
5:56 PM 33.1 °F 21.5 °F 30.9 °F 92% 29.18 in 2.0 mi NNW 19.6 mph 29.9 mph 0.01 in Snow Light Snow
5:59 PM 33.8 °F 21.3 °F 30.2 °F 87% 29.16 in 1.2 mi NNW 24.2 mph 31.1 mph 0.00 in Snow Light Snow
6:09 PM 33.8 °F 20.5 °F 30.2 °F 87% 29.16 in 2.0 mi NNW 27.6 mph 32.2 mph 0.00 in Snow Light Snow
6:19 PM 33.8 °F 20.1 °F 30.2 °F 87% 29.16 in 3.0 mi North 29.9 mph 38.0 mph 0.00 in Snow Light Snow
6:21 PM 33.8 °F 20.3 °F 30.2 °F 87% 29.17 in 2.5 mi North 28.8 mph 38.0 mph 0.00 in Snow Light Snow
6:32 PM 33.8 °F 22.8 °F 30.2 °F 87% 29.17 in 3.0 mi North 18.4 mph 32.2 mph 0.01 in Snow Light Snow
6:56 PM 34.0 °F 21.8 °F 30.9 °F 89% 29.18 in 2.5 mi North 23.0 mph 32.2 mph 0.01 in Snow Light Snow
7:56 PM 35.1 °F 23.8 °F 30.0 °F 82% 29.16 in 2.5 mi North 20.7 mph 35.7 mph 0.01 in Rain Light Rain
8:06 PM 35.6 °F 24.2 °F 30.2 °F 81% 29.13 in 6.0 mi North 21.9 mph 31.1 mph 0.00 in   Overcast
8:25 PM 35.6 °F 25.2 °F 30.2 °F 81% 29.12 in 6.0 mi NNE 18.4 mph 35.7 mph 0.00 in Rain Light Rain
8:56 PM 35.1 °F 23.0 °F 30.9 °F 85% 29.12 in 8.0 mi North 24.2 mph 29.9 mph 0.00 in Rain Light Rain
9:56 PM 35.1 °F 24.8 °F 32.0 °F 89% 29.10 in 10.0 mi NNW 17.3 mph 26.5 mph 0.00 in Rain Light Rain
10:56 PM 36.0 °F 26.0 °F 32.0 °F 86% 29.07 in 10.0 mi NW 17.3 mph - 0.02 in Rain Light Rain
11:56 PM 36.0 °F 27.5 °F 30.9 °F 82% 29.04 in 10.0 mi WNW 12.7 mph 21.9 mph 0.02 in Rain Rain